www.pogodaiklimat.ru

Погода и климат >> Архив погоды >> Россия >> Краснодарский край >> Геленджик


АРХИВ ПОГОДЫ в Геленджике

Время (UTC), дата Ветер
(напр.,м/с)
 
Видим.   Явления Облачность Т
(С)
Тd
(С)
f
(%)
Тe
(С)
Тes
(С)
Комфортность P
(гПа)
Po
(гПа)
Тmin
(С)
Tmax
(С)
R
(мм)
R24
(мм)
S
(см)
00 16.07 С 3 10 км 6/6 600 м
[Sc]
+23.7 +13.3 52 +26 +26 жарко 1011.7 1010.0
03 16.07 С 2 50 км 4/0
[Ac trans]
+23.5 +14.7 58 +26 +27 жарко 1012.3 1010.6 +22.6
06 16.07 С 2 50 км 3/0
[Ac trans]
+27.0 +16.0 51 +30 +38 душно 1012.9 1011.2
09 16.07 С 3 50 км 10/0
[Ac trans Ci fib]
+27.3 +17.1 54 +31 +39 душно 1012.8 1011.1
12 16.07 С 2 50 км 4/0
[Ac trans]
+31.0 +16.1 41 +34 +44 душно 1012.2 1010.5
15 16.07 С 3 50 км 3/0
[Ac trans]
+28.4 +17.7 52 +33 +34 очень
душно
1011.3 1009.6 +31.0
18 16.07 СЗ 2 50 км 6/3 1000 м
[Sc Ac trans Ci fib]
+25.8 +16.1 55 +29 +29 душно 1011.8 1010.1
21 16.07 СВ 4-10
{11}
10 км 10/4 1000 м
[Sc Ac trans Ci fib]
+27.3 +16.6 52 +31 +31 душно 1010.9 1009.2
00 17.07 Ю 1
{12}
10 км 4/0
[Ac trans Ci fib]
+26.2 +17.5 59 +30 +30 душно 1010.6 1008.9
03 17.07 С 1 50 км 4/0
[]
+23.1 +18.1 73 +29 +29 очень
душно
1010.7 1009.0 +22.3
06 17.07 ЮЗ 1 20 км 10/0
[Ac trans Cc]
+26.4 +20.6 70 +33 +40 очень
душно
1010.8 1009.1
09 17.07 ЮЗ 1 20 км 6/1 1000 м
[Cu med, cong Ac trans Cc]
+28.6 +20.0 60 +35 +49 очень
душно
1011.3 1009.6
12 17.07 ЮЗ 1 20 км 4/1 1000 м
[Cu med, cong Cc]
+28.9 +19.4 57 +35 +48 очень
душно
1010.5 1008.8
15 17.07 З 1 20 км ясно +28.7 +22.1 68 +37 +40 очень
душно
1009.5 1007.8 +30.0
18 17.07 СВ 3 20 км 1/0
[Cs]
+28.8 +18.4 53 +34 +34 очень
душно
1009.8 1008.1
21 17.07 СВ 3
{11}
10 км ясно +27.7 +15.7 48 +31 +31 душно 1010.3 1008.6
00 18.07 Ю 1 10 км ясно +26.8 +15.8 51 +30 +30 душно 1010.6 1008.9
03 18.07 СВ 2 20 км 3/1 300 м
[St Cc]
+23.9 +17.7 68 +28 +28 душно 1011.6 1009.9 +23.7
06 18.07 З 1 50 км 3/1 1000 м
[Sc Cc]
+29.5 +16.2 45 +33 +42 душно 1012.3 1010.6
09 18.07 З 1 50 км ясно +30.2 +18.4 49 +35 +57 опасность
солнечного
удара
1011.2 1009.5
12 18.07 СВ 4 50 км ясно +34.3 +16.1 34 +37 +46 очень
душно
1010.1 1008.4
15 18.07 СВ 4
{11}
50 км ясно +32.8 +16.3 37 +36 +37 очень
душно
1009.0 1007.3 +34.6
18 18.07 СВ 8-14
{15}
50 км 4/0
[Ci fib]
+30.0 +16.1 43 +33 +33 душно 1008.6 1006.9
21 18.07 СВ 8-16
{18}
10 км ясно +28.3 +15.9 47 +31 +31 душно 1008.1 1006.4
00 19.07 СВ 4-12
{17}
10 км ясно +27.8 +15.0 46 +30 +30 жарко 1007.8 1006.1
03 19.07 СВ 7-13
{14}
50 км 8/0
[Cc]
+25.7 +15.9 55 +29 +29 душно 1007.4 1005.7 +25.5
06 19.07 СВ 5-10
{14}
50 км 10/0
[Ac trans Cc]
+28.3 +16.1 48 +32 +35 душно 1007.8 1006.1
09 19.07 СВ 6-11
{14}
20 км 8/1 600 м
[Cu hum Ac trans Cc]
+30.1 +17.0 45 +34 +38 очень
душно
1008.1 1006.5
12 19.07 С 4
{13}
50 км 10/3 1000 м
[Sc Ac trans Cc]
+30.5 +17.1 45 +34 +37 очень
душно
1008.9 1007.2
15 19.07 С 4-10
{10}
50 км 8/3 1000 м
[Sc Ac trans Cc]
+31.1 +16.4 41 +34 +35 душно 1008.5 1006.8 +33.0
18 19.07 С 9-21
{21}
10 км слабый ливневой дождь 10/10 600 м
[Cb cap]
+26.7 +14.5 47 +29 +29 жарко 1008.0 1006.3
21 19.07 СВ 7-15
{25}
10 км гроза, ливневой дождь 10/10 600 м
[Cb cap]
+23.3 +15.8 63 +28 +28 душно 1009.1 1007.3
00 20.07 СВ 5
{19}
10 км гроза, ливневой дождь 10/10 600 м
[Cb cap]
+20.7 +16.8 78 +24 +24 комфорт 1008.7 1007.0
03 20.07 СВ 3
{11}
10 км слабый ливневой дождь {гроза} 10/8 600 м
[Cb cap Ac und]
+21.1 +16.0 73 +24 +24 комфорт 1008.1 1006.3 +20.2 5
06 20.07 СВ 1
{12}
10 км слабый ливневой дождь, в посл. час гроза 10/6 300 м
[Cb cap Ac und]
+20.8 +15.8 73 +25 +26 комфорт 1009.6 1007.8
09 20.07 СВ 5-10
{12}
10 км слабый ливневой дождь, в посл. час гроза 10/8 300 м
[Cb cap Ac und]
+20.9 +17.4 80 +25 +25 комфорт 1008.5 1006.7
12 20.07 СВ 7-17
{17}
10 км в посл. час ливневой дождь {гроза} 10/6 300 м
[Cb cap Ac und]
+21.9 +17.4 76 +26 +27 душно 1008.3 1006.6
15 20.07 СВ 5-11
{18}
10 км в посл. час ливневой дождь 10/8 300 м
[Cb cap Ac und]
+20.3 +16.0 76 +23 +23 комфорт 1009.1 1007.3 +23.4 6
18 20.07 С 4
{13}
10 км {ливн. осадки} 10/8 300 м
[Cb cap Ac und]
+21.3 +15.0 67 +24 +24 комфорт 1010.2 1008.4
21 20.07 СВ 3 10 км {ливн. осадки} 10/8 1000 м
[Cb cap Ac und]
+21.0 +14.9 68 +25 +25 комфорт 1011.3 1009.5
00 21.07 СВ 3 10 км {ливн. осадки} 9/6 1000 м
[Sc Ac As]
+20.9 +15.8 73 +25 +25 комфорт 1011.1 1009.4
03 21.07 СВ 4 50 км 9/6 300 м
[Sc Ac As]
+21.7 +15.6 68 +25 +25 комфорт 1011.4 1009.7 +19.9 0.0
06 21.07 СВ 4 50 км 10/8 1000 м
[Sc Ac trans]
+23.7 +16.6 64 +27 +28 жарко 1012.4 1010.7
09 21.07 С 2 50 км 6/4 1000 м
[Sc Ac trans]
+26.7 +17.8 58 +31 +40 душно 1012.9 1011.2
12 21.07 З 1 50 км 8/6 600 м
[Cu Sc Ac trans]
+27.1 +17.8 57 +32 +36 очень
душно
1012.4 1010.7
15 21.07 СВ 3 50 км 3/3 600 м
[Cu hum]
+27.9 +17.1 52 +32 +33 душно 1012.1 1010.4 +29.0
18 21.07 СВ 3 50 км 1/1 600 м
[Cu hum]
+25.4 +17.0 60 +29 +29 душно 1012.3 1010.6
21 21.07 СВ 4
{10}
10 км 1/1 600 м
[Cu hum]
+25.8 +16.4 56 +29 +29 душно 1011.7 1010.0
00 22.07 В 1 10 км ясно +24.3 +16.3 61 +28 +28 душно 1011.3 1009.5
03 22.07 ЮВ 1 50 км 9/4 1000 м
[Sc Ac As Ci sp]
+23.2 +18.3 74 +29 +29 душно 1011.5 1009.8 +22.9
06 22.07 ЮВ 1 50 км 10/10 1000 м
[Sc]
+24.2 +19.7 76 +29 +29 душно 1012.1 1010.4
09 22.07 З 1 50 км 10/10 1000 м
[Sc]
+24.1 +20.1 78 +30 +30 очень
душно
1012.4 1010.7
12 22.07 СЗ 1 10 км слабый ливневой дождь 10/10 600 м
[Cb cap]
+23.0 +20.9 88 +30 +30 очень
душно
1012.3 1010.6
15 22.07 штиль 0 10 км {ливн. осадки} 10/10 600 м
[Cb cap]
+24.2 +21.1 83 +31 +31 очень
душно
1012.0 1010.2 +24.9 1
18 22.07 ЮВ 1 10 км {ливн. осадки} 10/10 600 м
[Cb cap]
+22.7 +21.0 90 +30 +30 очень
душно
1012.5 1010.7
21 22.07 В 2 10 км 10/10 600 м
[Cb cap]
+23.8 +16.8 65 +27 +27 жарко 1012.4 1010.7

 

Местоположение метеостанции Геленджик (Краснодарский край, Россия): широта 44.57 долгота 38.08 высота над уровнем моря 15 м.

В архиве по умолчанию представлена погода в Геленджике за последнюю неделю. Архивные данные за месяц целиком и за предыдущие месяцы, начиная с января 2011 года, Вы можете получить, выбрав интересующий диапазон дат из раскрывающегося списка и нажав кнопку "Ввод!".

Внимание! Время в таблицах - всемирное. Для получения местного времени необходимо прибавить поправку, которая в Геленджике равна 3 ч.

Смотрите также архив погоды в соседних городах и на ближайших метеорологических станциях:

Погода в Новороссийске (Краснодарский край, Россия) (25 км)
Погода в Крымске (Краснодарский край, Россия) (39 км)
Погода в Джубге (Краснодарский край, Россия) (57 км)
Погода в Анапе (Краснодарский край, Россия) (72 км)
Погода в Славянске-на-Кубани (Краснодарский край, Россия) (79 км)
Погода в Горячем Ключе (Краснодарский край, Россия) (81 км)
Погода в Краснодаре (Краснодарский край, Россия) (92 км)
Погода в Туапсе (Краснодарский край, Россия) (95 км)
Погода в Горном (Краснодарский край, Россия) (100 км)
Погода в Темрюке (Краснодарский край, Россия) (100 км)

Пояснения к столбцам:

Ветер - указаны скорость ветра в м/с - средняя за 10 мин, порывы в срок и между сроками (в фигурных скобках) и направление, откуда дует ветер: С - северный, СВ - северо-восточный, В - восточный, ЮВ - юго-восточный, Ю - южный, ЮЗ - юго-западный, З - западный, СЗ - северо-западный.
Видимость - горизонтальная дальность видимости в метрах или километрах. При видимости от 1 до 10 км при отсутствии осадков обычно наблюдается дымка, при ухудшении видимости до 1 км и менее - туман. В сухую погоду видимость может ухудшаться дымом, пылью или мглою.
Явления - указаны атмосферные явления, наблюдавшиеся в срок или в последний час перед сроком; фигурными скобками обозначены явления, наблюдавшиеся между сроками (за 1-3 часа до срока); квадратными скобками обозначены град или гололедные отложения с указанием их диаметра в мм.
Облачность - указаны через наклонную черту общая и нижняя облачность в баллах и высота нижней границы облаков в метрах; квадратными скобками обозначены формы облаков: Ci - перистые, Cs - перисто-слоистые, Cc - перисто-кучевые, Ac - высококучевые, As - высокослоистые, Sc - слоисто-кучевые, Ns - слоисто-дождевые, Cu - кучевые, Cb - кучево-дождевые. Подробнее классификацию облаков см. в Атласе облаков (PDF).
T - Температура воздуха - температура, измеренная на высоте 2 м над землей.
Td - Температура точки росы - температура, при понижении до которой содержащийся в воздухе водяной пар достигнет насыщения.
f - Относительная влажность воздуха - влажноcть воздуха, измеренная на высоте 2 м над землей.
Te - Эффективная температура - температура, которую ощущает одетый по сезону человек в тени. Характеристика душности погоды. При расчете учитывается влияние влажности воздуха и скорости ветра на теплоощущения человека.
Tes - Эффективная температура на солнце - температура, которую ощущает человек, с поправкой на солнечный нагрев. Характеристика знойности погоды. Зависит от высоты солнца над горизонтом, облачности и скорости ветра. Ночью, в пасмурную погоду, а также при ветре 12 м/с и более поправка равна нулю.
P - Атмосферное давление - приведенное к уровню моря атмосферное давление.
Po - Атмосферное давление - измеренное на уровне метеостанции атмосферное давление.
Tmin - Минимальная температура - минимум температуры воздуха на высоте 2 м над землей.
Tmax - Максимальная температура - максимум температуры воздуха на высоте 2 м над землей.
R - Количество осадков - Количество выпавших осадков за период времени, мм. При наведении курсора мыши на число - период времени, за который выпало указанное количество осадков.
R24 - Количество осадков - Количество выпавших осадков за 24 часа, мм.
S - Снежный покров - Высота снежного покрова, см. При наведении курсора мыши на число - состояние снежного покрова и степень покрытия местности в баллах.